LNI224 WADD-WAAA

Flight info

Callsign LNI224
Flight time N/A
Altitude 35000
Route PEDET W41 LIPOT
Aircraft B739/M-SDE2E3FGHIRWXY/LB1

Departure

Time 2026-04-30 11:34
Airport Denpasar I Gusti Ngurah Rai International Airport (WADD)

Arrival

Time N/A
Airport Sultan Hasanuddin International Airport (WAAA)
Time Latitude Longitude Altitude Speed Heading
2026-04-30 11:15 -8.74536 115.16132 32 ft 0 kts 88°
2026-04-30 11:26 -8.74536 115.16119 32 ft 2 kts 88°
2026-04-30 11:26 -8.74537 115.16102 32 ft 2 kts 88°
2026-04-30 11:26 -8.74537 115.16086 32 ft 2 kts 89°
2026-04-30 11:27 -8.74536 115.16069 32 ft 2 kts 109°
2026-04-30 11:27 -8.74528 115.16056 32 ft 2 kts 157°
2026-04-30 11:27 -8.74519 115.16053 28 ft 1 kts 174°
2026-04-30 11:27 -8.74517 115.16053 28 ft 0 kts 175°
2026-04-30 11:29 -8.74605 115.16070 32 ft 15 kts 177°
2026-04-30 11:30 -8.74711 115.15954 32 ft 13 kts 268°
2026-04-30 11:30 -8.74715 115.15840 32 ft 18 kts 268°
2026-04-30 11:30 -8.74721 115.15712 32 ft 18 kts 267°
2026-04-30 11:31 -8.74726 115.15588 31 ft 17 kts 268°
2026-04-30 11:31 -8.74730 115.15472 31 ft 16 kts 267°
2026-04-30 11:31 -8.74787 115.15393 30 ft 14 kts 187°
2026-04-30 11:31 -8.74798 115.15392 30 ft 0 kts 181°
2026-04-30 11:32 -8.74814 115.15392 29 ft 6 kts 178°
2026-04-30 11:33 -8.74893 115.15513 28 ft 0 kts 87°
2026-04-30 11:33 -8.74893 115.15516 28 ft 2 kts 87°
2026-04-30 11:33 -8.74887 115.15636 27 ft 51 kts 87°
2026-04-30 11:34 -8.74861 115.16290 27 ft 132 kts 87°
2026-04-30 11:34 -8.74809 115.17434 120 ft 186 kts 88°
2026-04-30 11:34 -8.74768 115.18732 1098 ft 178 kts 88°
2026-04-30 11:34 -8.74719 115.20009 1900 ft 193 kts 88°
2026-04-30 11:35 -8.74660 115.21469 2154 ft 220 kts 88°
2026-04-30 11:35 -8.74594 115.23070 2551 ft 235 kts 88°
2026-04-30 11:35 -8.74524 115.24742 3167 ft 240 kts 88°
2026-04-30 11:35 -8.74453 115.26465 3652 ft 257 kts 88°